This is the latest recevied weather packets stored in our database for station/object N5ATR. If no packets are shown the sender has not sent any weather packets the latest 10 day(s).
| Time | Temp. | Humidity | Pressure | Rain* | Wind** | Luminosity | Snow |
|---|---|---|---|---|---|---|---|
| 1788023790 | 28.89° C | 30% | 1026.5 hPa | 0 mm | - | 626 W/m² | - |
| 1788023485 | 28.89° C | 31% | 1026.7 hPa | 0 mm | - | 634 W/m² | - |
| 1788023181 | 28.33° C | 31% | 1026.5 hPa | 0 mm | - | 606 W/m² | - |
| 1788022880 | 27.78° C | 32% | 1026.6 hPa | 0 mm | - | 590 W/m² | - |
| 1788022577 | 28.89° C | 30% | 1026.6 hPa | 0 mm | - | 606 W/m² | - |
| 1788022272 | 28.33° C | 32% | 1026.8 hPa | 0 mm | - | 561 W/m² | - |
| 1788021971 | 28.33° C | 32% | 1026.5 hPa | 0 mm | - | 584 W/m² | - |
| 1788021666 | 27.78° C | 32% | 1026.7 hPa | 0 mm | - | 562 W/m² | - |
| 1788021363 | 27.78° C | 33% | 1026.6 hPa | 0 mm | - | 540 W/m² | - |
| 1788021059 | 27.78° C | 33% | 1026.8 hPa | 0 mm | - | 538 W/m² | - |
| 1788020755 | 27.22° C | 34% | 1026.7 hPa | 0 mm | - | 523 W/m² | - |
| 1788020454 | 26.67° C | 34% | 1027 hPa | 0 mm | - | 509 W/m² | - |
| 1788020150 | 26.67° C | 35% | 1026.8 hPa | 0 mm | - | 495 W/m² | - |
| 1788019845 | 26.67° C | 35% | 1026.8 hPa | 0 mm | - | 480 W/m² | - |
| 1788019545 | 26.11° C | 35% | 1026.6 hPa | 0 mm | - | 467 W/m² | - |
| 1788019245 | 26.67° C | 35% | 1026.7 hPa | 0 mm | - | 453 W/m² | - |
| 1788018943 | 26.67° C | 34% | 1026.7 hPa | 0 mm | - | 441 W/m² | - |
| 1788018638 | 26.67° C | 35% | 1026.5 hPa | 0 mm | - | 427 W/m² | - |
| 1788018337 | 26.11° C | 36% | 1026.7 hPa | 0 mm | - | 412 W/m² | - |
| 1788018033 | 26.11° C | 37% | 1026.6 hPa | 0 mm | - | 396 W/m² | - |
| 1788017729 | 26.11° C | 37% | 1026.7 hPa | 0 mm | - | 381 W/m² | - |
| 1788017426 | 25.56° C | 37% | 1026.2 hPa | 0 mm | - | 367 W/m² | - |
| 1788017122 | 25° C | 38% | 1026.3 hPa | 0 mm | - | 350 W/m² | - |
| 1788016821 | 25° C | 38% | 1026.5 hPa | 0 mm | - | 333 W/m² | - |
| 1788016520 | 24.44° C | 39% | 1026.7 hPa | 0 mm | - | 319 W/m² | - |
* Rain latest hour (hover to see other rain measurements)
** Current wind speed in m/s (hover to see current wind gust speed)